Location: Tr�vern
(48.0333°N, 4.6000°W)
Time: 18:13:36
(UTC+00:00)

Cosmos 1441 Rocket - Pass Details

Date: 14 July 2020
Orbit: 495 x 541 km, 81.1° (Epoch: 12 August)

Event Time Altitude Azimuth Distance (km) Brightness Sun altitude
Exits shadow 00:10:32 39° 113° (ESE) 814 3.9 -20.3°
Maximum altitude 00:10:57 41° 95° (E) 793 4.0 -20.3°
Drops below altitude 10° 00:14:41 10° 25° (NNE) 1,797 6.8 -20.3°
Sets 00:16:54 0° 18° (NNE) 2,687 8.1 -20.3°
